www.pogodaiklimat.ru

Погода и климат >> Архив погоды >> Швейцария >> Гренхен


ПОГОДА в Гренхене

  • Прогноз погоды в Гренхене
  • Монитор погоды в Гренхене

АРХИВ ПОГОДЫ в Гренхене

Время (UTC), дата Ветер
(напр.,м/с)
 
Видим.   Явления Облачность Т
(С)
Тd
(С)
f
(%)
Тe
(С)
Тes
(С)
Комфортность P
(гПа)
Po
(гПа)
Тmin
(С)
Tmax
(С)
R
(мм)
R24
(мм)
S
(см)
10 16.05 В 6
{11}
н/о н/о +12.3 +4.4 58 +10 +10 1013.2 962.9
11 16.05 В 6
{10}
н/о н/о +13.6 +5.5 58 +12 +12 1012.6 962.6
12 16.05 В 5
{11}
н/о н/о +12.7 +4.7 58 +11 +11 1012.8 962.6
13 16.05 В 5
{9}
н/о н/о +14.3 +5.9 57 +13 +13 1012.1 962.2
14 16.05 В 3
{8}
н/о н/о +13.8 +5.1 56 +13 +13 1011.6 961.6
15 16.05 В 3
{9}
н/о н/о +14.8 +5.4 53 +14 +14 1010.7 961.0
16 16.05 СВ 3
{7}
н/о н/о +14.5 +5.0 53 +14 +14 1010.4 960.6
17 16.05 В 4
{7}
н/о н/о +13.7 +5.1 56 +13 +13 1010.1 960.2
18 16.05 СВ 2
{9}
н/о н/о +12.6 +5.5 62 +12 +12 1010.2 960.1 +14.8
19 16.05 СВ 3
{4}
н/о н/о +8.6 +5.5 81 +6 +6 1010.9 960.0
20 16.05 СВ 2
{3}
н/о н/о +6.7 +4.7 87 +5 +5 1011.2 960.0
21 16.05 СВ 2
{4}
н/о н/о +5.0 +3.9 93 +3 +3 1011.3 959.8
22 16.05 В 1
{2}
н/о н/о +5.4 +4.5 94 +5 +5 1010.8 959.4
23 16.05 СВ 2
{3}
н/о н/о +3.8 +3.2 96 +1 +1 1010.7 959.0
00 17.05 штиль 0
{4}
н/о н/о +4.2 +3.8 97 +3 +3 1010.2 958.6
01 17.05 штиль 0
{1}
н/о н/о +3.4 +3.4 100 +2 +2 1009.8 958.0
02 17.05 ЮЗ 1
{2}
н/о н/о +2.4 +2.4 100 0 0 1009.7 957.8
03 17.05 штиль 0
{2}
н/о н/о +2.6 +2.6 100 +1 +1 1009.5 957.6
04 17.05 СВ 1
{2}
н/о н/о +1.9 +1.9 100 -0 -0 1009.6 957.6
05 17.05 В 1
{2}
н/о н/о +4.0 +4.0 100 +4 +4 1009.2 957.6
06 17.05 СВ 1
{3}
н/о н/о +7.0 +6.3 95 +6 +6 1008.4 957.4 +1.5
07 17.05 В 2
{3}
н/о н/о +8.9 +6.8 87 +8 +8 1007.6 957.0
08 17.05 СВ 2
{3}
н/о н/о +10.4 +6.8 78 +9 +9 1006.7 956.4
09 17.05 СВ 2
{3}
н/о н/о +12.2 +7.0 71 +12 +12 1006.0 956.0
10 17.05 В 2
{4}
н/о н/о +13.7 +8.1 69 +14 +14 1005.4 955.7
11 17.05 СЗ 1
{3}
н/о н/о +16.0 +7.6 57 +17 +17 1004.6 955.4
12 17.05 С 1
{4}
н/о н/о +16.9 +7.5 54 +18 +18 1004.4 955.3
13 17.05 ЮЗ 1
{4}
н/о н/о +17.4 +8.0 54 +18 +18 1004.2 955.2
14 17.05 ЮЗ 2
{4}
н/о н/о +17.8 +8.3 54 +19 +19 1003.8 954.9
15 17.05 СЗ 7
{11}
н/о н/о +16.9 +7.9 55 +16 +16 1004.3 955.2
16 17.05 СЗ 4
{11}
н/о н/о +15.3 +7.4 59 +14 +14 1004.8 955.4
17 17.05 В 2
{5}
н/о н/о +12.3 +11.2 93 +11 +11 1006.6 956.6 0.8
18 17.05 З 2
{11}
н/о н/о +12.0 +11.1 94 +11 +11 1006.1 956.1 +18.1 2
19 17.05 ЮЗ 2
{5}
н/о н/о +11.7 +10.6 93 +11 +11 1006.4 956.3
20 17.05 СВ 1
{4}
н/о н/о +11.2 +10.8 97 +12 +12 1007.0 956.8
21 17.05 В 1
{5}
н/о н/о +10.5 +10.5 100 +11 +11 1007.3 957.0
22 17.05 В 1
{2}
н/о н/о +10.2 +10.2 100 +10 +10 1007.2 956.8
23 17.05 СВ 1
{2}
н/о н/о +10.2 +10.2 100 +10 +10 1007.1 956.7
00 18.05 ЮЗ 1
{5}
н/о н/о +10.2 +10.2 100 +10 +10 1007.0 956.6
01 18.05 СВ 1
{2}
н/о н/о +9.6 +9.6 100 +9 +9 1006.9 956.4
02 18.05 В 1
{3}
н/о н/о +9.7 +9.7 100 +9 +9 1006.6 956.2
03 18.05 СВ 1
{3}
н/о н/о +9.9 +9.9 100 +9 +9 1006.6 956.2
04 18.05 В 1
{2}
н/о н/о +9.6 +9.6 100 +9 +9 1006.3 955.9
05 18.05 штиль 0
{1}
н/о н/о +10.3 +10.3 100 +9 +9 1006.3 956.0
06 18.05 СВ 2
{3}
н/о н/о +10.8 +10.8 100 +10 +10 1006.3 956.1 +9.6
07 18.05 В 2
{3}
н/о н/о +11.5 +11.5 100 +11 +11 1005.9 955.8
08 18.05 СВ 2
{3}
н/о н/о +12.9 +10.8 87 +12 +12 1005.6 955.8
09 18.05 В 1
{3}
н/о н/о +13.9 +8.4 69 +14 +14 1005.1 955.5
10 18.05 В 2
{3}
н/о н/о +14.8 +9.9 72 +15 +15 1005.0 955.5
11 18.05 СВ 2
{4}
н/о н/о +15.1 +10.1 72 +15 +15 1004.8 955.4
12 18.05 В 2
{4}
н/о н/о +16.1 +10.8 71 +16 +16 1004.5 955.3
13 18.05 В 2
{4}
н/о н/о +16.4 +10.5 68 +17 +17 1004.5 955.3
14 18.05 В 1
{4}
н/о н/о +16.6 +9.2 62 +17 +17 1004.1 955.0
15 18.05 СЗ 1
{4}
н/о н/о +16.9 +8.4 57 +18 +18 1003.7 954.7
16 18.05 З 2
{3}
н/о н/о +16.8 +9.2 61 +17 +17 1003.7 954.7
17 18.05 ЮЗ 2
{3}
н/о н/о +15.7 +10.2 70 +16 +16 1004.1 954.8
18 18.05 ЮЗ 3
{4}
н/о н/о +14.6 +10.1 74 +14 +14 1004.4 954.9 +17.0
19 18.05 ЮЗ 2
{4}
н/о н/о +13.3 +10.3 82 +13 +13 1005.2 955.5
20 18.05 Ю 1
{2}
н/о н/о +13.5 +9.8 78 +14 +14 1005.7 956.0
21 18.05 ЮЗ 2
{4}
н/о н/о +12.6 +10.6 88 +12 +12 1005.9 956.0
22 18.05 ЮЗ 2
{3}
н/о н/о +12.2 +11.2 94 +11 +11 1006.0 956.0 0.4
23 18.05 ЮЗ 2
{3}
н/о н/о +12.0 +10.7 92 +11 +11 1006.0 956.0 0.1
00 19.05 В 2
{4}
н/о н/о +11.5 +11.1 97 +11 +11 1006.0 955.9
01 19.05 ЮВ 2
{3}
н/о н/о +11.6 +11.0 96 +11 +11 1006.0 955.9
02 19.05 СВ 2
{3}
н/о н/о +11.1 +11.1 100 +10 +10 1006.1 955.9 3
03 19.05 штиль 0
{3}
н/о н/о +11.2 +11.2 100 +10 +10 1005.7 955.6 1
04 19.05 В 1
{1}
н/о н/о +10.8 +10.8 100 +11 +11 1005.8 955.6 0.2
05 19.05 В 1
{1}
н/о н/о +11.1 +11.1 100 +12 +12 1005.7 955.6 0.1
06 19.05 В 1
{3}
н/о н/о +11.9 +11.9 100 +12 +12 1005.6 955.6 +10.7
07 19.05 ЮЗ 1
{2}
н/о н/о +13.3 +11.3 88 +14 +14 1005.2 955.5
08 19.05 Ю 1
{2}
н/о н/о +13.9 +10.8 82 +15 +15 1004.9 955.3
09 19.05 ЮВ 1
{2}
н/о н/о +15.2 +11.6 79 +16 +16 1004.7 955.3
10 19.05 Ю 1
{3}
н/о н/о +14.6 +11.2 80 +15 +15 1004.7 955.2
11 19.05 В 1
{2}
н/о н/о +15.0 +10.7 75 +16 +16 1004.3 954.9
12 19.05 В 3
{5}
н/о н/о +15.8 +10.8 72 +15 +15 1004.0 954.8
13 19.05 СВ 2
{5}
н/о н/о +16.5 +9.8 65 +17 +17 1003.6 954.5
14 19.05 СЗ 3
{10}
н/о н/о +18.1 +9.8 58 +18 +18 1003.0 954.2
15 19.05 С 1
{10}
н/о н/о +17.6 +8.5 55 +19 +19 1003.1 954.2
16 19.05 Ю 2
{7}
н/о н/о +16.8 +10.4 66 +17 +17 1003.1 954.1
17 19.05 ЮЗ 5
{9}
н/о н/о +16.6 +11.1 70 +16 +16 1003.2 954.1
18 19.05 ЮЗ 2
{10}
н/о н/о +16.2 +9.4 64 +17 +17 1003.6 954.5 +18.5
19 19.05 Ю 2
{3}
н/о н/о +15.1 +9.3 68 +15 +15 1004.3 954.9
20 19.05 З 1
{7}
н/о н/о +14.5 +9.7 73 +15 +15 1004.9 955.4
21 19.05 В 1
{7}
н/о н/о +12.8 +11.3 91 +13 +13 1005.5 955.7
22 19.05 СЗ 2
{4}
н/о н/о +13.6 +10.1 79 +13 +13 1005.5 955.8
23 19.05 ЮЗ 4
{7}
н/о н/о +13.1 +9.6 79 +12 +12 1005.6 955.8
00 20.05 Ю 3
{7}
н/о н/о +12.3 +10.9 91 +11 +11 1005.5 955.6 0.7
01 20.05 Ю 2
{4}
н/о н/о +11.9 +11.5 97 +11 +11 1005.5 955.5 2
02 20.05 ЮЗ 3
{4}
н/о н/о +11.6 +11.5 99 +10 +10 1005.3 955.3 0.8
03 20.05 ЮЗ 3
{4}
н/о н/о +11.2 +11.2 100 +9 +9 1005.5 955.4 0.7
04 20.05 ЮЗ 2
{4}
н/о н/о +11.0 +11.0 100 +9 +9 1005.9 955.7 1
05 20.05 ЮЗ 3
{4}
н/о н/о +11.0 +11.0 100 +9 +9 1006.1 955.9 1
06 20.05 Ю 2
{4}
н/о н/о +11.2 +11.2 100 +10 +10 1006.6 956.4 +10.9 3
07 20.05 ЮЗ 3
{4}
н/о н/о +11.3 +11.3 100 +10 +10 1007.0 956.8 4
08 20.05 ЮЗ 4
{5}
н/о н/о +11.2 +11.2 100 +9 +9 1007.2 957.0 3
09 20.05 ЮЗ 5
{7}
н/о н/о +12.0 +12.0 100 +9 +9 1007.5 957.4 1
10 20.05 ЮЗ 6
{8}
н/о н/о +12.2 +12.2 100 +9 +9 1007.6 957.6 0.5
11 20.05 ЮЗ 6
{8}
н/о н/о +12.2 +12.2 100 +9 +9 1008.1 958.0 1
12 20.05 ЮЗ 4
{8}
н/о н/о +12.2 +12.2 100 +10 +10 1008.3 958.2 0.1
13 20.05 ЮЗ 6
{9}
н/о н/о +12.2 +12.2 100 +9 +9 1008.6 958.5 0.2
14 20.05 ЮЗ 4
{10}
н/о н/о +12.6 +12.4 99 +10 +10 1008.7 958.7
15 20.05 ЮЗ 6
{10}
н/о н/о +13.5 +12.5 94 +11 +11 1008.8 958.9
16 20.05 ЮЗ 4
{8}
н/о н/о +13.4 +12.2 92 +12 +12 1009.0 959.1
17 20.05 ЮЗ 7
{10}
н/о н/о +13.2 +11.9 92 +11 +11 1009.4 959.4
18 20.05 ЮЗ 6
{10}
н/о н/о +12.7 +11.5 92 +10 +10 1009.8 959.7 +13.5
19 20.05 ЮЗ 5
{9}
н/о н/о +12.4 +11.5 94 +10 +10 1010.3 960.2
20 20.05 ЮЗ 4
{6}
н/о н/о +12.3 +11.6 95 +10 +10 1011.0 960.8
21 20.05 ЮЗ 4
{9}
н/о н/о +12.3 +11.3 94 +10 +10 1011.5 961.3
22 20.05 ЮЗ 3
{5}
н/о н/о +12.0 +11.2 95 +10 +10 1012.0 961.7
23 20.05 ЮЗ 3
{9}
н/о н/о +11.8 +10.9 94 +10 +10 1012.0 961.7
00 21.05 З 3
{9}
н/о н/о +11.9 +10.4 91 +10 +10 1012.0 961.7
01 21.05 З 6
{9}
н/о н/о +12.0 +8.5 79 +9 +9 1012.4 962.1
02 21.05 З 4
{9}
н/о н/о +11.9 +8.4 79 +10 +10 1012.7 962.3
03 21.05 ЮЗ 3
{9}
н/о н/о +11.3 +9.2 87 +10 +10 1012.7 962.2
04 21.05 ЮЗ 2
{6}
н/о н/о +10.9 +9.5 91 +9 +9 1012.7 962.2
05 21.05 ЮЗ 4
{5}
н/о н/о +11.2 +9.8 91 +9 +9 1013.1 962.6
06 21.05 ЮЗ 3
{9}
н/о н/о +11.5 +10.1 91 +10 +10 1013.4 962.9 +10.9
07 21.05 ЮЗ 5
{7}
н/о н/о +12.0 +10.1 88 +10 +10 1013.8 963.4
08 21.05 ЮЗ 4
{7}
н/о н/о +13.0 +10.8 86 +11 +11 1013.8 963.6
09 21.05 З 4
{7}
н/о н/о +13.9 +9.6 75 +12 +12 1014.1 964.0
10 21.05 З 3
{7}
н/о н/о +13.9 +9.1 73 +13 +13 1014.5 964.4
11 21.05 З 6
{9}
н/о н/о +14.6 +9.0 69 +13 +13 1014.5 964.5
12 21.05 З 5
{10}
н/о н/о +15.7 +8.9 64 +15 +15 1014.5 964.7
13 21.05 З 3
{8}
н/о н/о +16.1 +8.8 62 +16 +16 1014.6 964.9
14 21.05 Ю 4
{13}
н/о н/о +16.2 +8.9 62 +16 +16 1014.4 964.7
15 21.05 ЮЗ 3
{13}
н/о н/о +16.7 +8.8 60 +17 +17 1014.5 964.9
16 21.05 З 2
{10}
н/о н/о +16.0 +8.9 63 +16 +16 1014.9 965.2
17 21.05 Ю 2
{7}
н/о н/о +16.0 +9.7 66 +16 +16 1014.9 965.2
18 21.05 Ю 3
{13}
н/о н/о +16.1 +10.1 68 +16 +16 1015.1 965.4 +16.7
19 21.05 В 5
{8}
н/о н/о +13.9 +10.9 82 +12 +12 1016.3 966.1
20 21.05 ЮВ 1
{7}
н/о н/о +13.2 +11.4 89 +13 +13 1017.6 967.2
21 21.05 С 1
{8}
н/о н/о +12.4 +12.1 98 +13 +13 1018.2 967.7 1
22 21.05 СВ 1
{2}
н/о н/о +11.9 +11.9 100 +12 +12 1018.9 968.2
23 21.05 СЗ 1
{2}
н/о н/о +11.8 +11.8 100 +12 +12 1018.8 968.1 0.9
00 22.05 З 1
{8}
н/о н/о +11.1 +11.1 100 +11 +11 1018.9 968.1 0.1
01 22.05 штиль 0
{1}
н/о н/о +10.5 +10.5 100 +10 +10 1018.9 968.0
02 22.05 штиль 0
{1}
н/о н/о +8.7 +8.7 100 +8 +8 1019.5 968.2
03 22.05 штиль 0
{1}
н/о н/о +9.0 +9.0 100 +8 +8 1019.5 968.3
04 22.05 В 1
{1}
н/о н/о +8.1 +8.1 100 +8 +8 1019.8 968.4
05 22.05 штиль 0
{2}
н/о н/о +7.6 +7.6 100 +6 +6 1020.1 968.6
06 22.05 С 1
{2}
н/о н/о +8.7 +8.7 100 +9 +9 1020.1 968.8 +6.8 0.1
07 22.05 В 2
{3}
н/о н/о +10.7 +10.7 100 +10 +10 1019.9 969.0
08 22.05 В 3
{4}
н/о н/о +13.1 +13.1 100 +12 +12 1019.5 969.0
09 22.05 В 2
{4}
н/о н/о +15.5 +13.0 85 +16 +16 1018.8 968.8
10 22.05 В 2
{5}
н/о н/о +16.7 +8.5 58 +17 +17 1018.6 968.8
11 22.05 З 2
{5}
н/о н/о +17.9 +5.0 43 +19 +19 1018.2 968.6
12 22.05 ЮЗ 3
{5}
н/о н/о +18.7 +6.9 46 +19 +19 1017.7 968.3
13 22.05 ЮВ 2
{4}
н/о н/о +19.1 +6.6 44 +20 +20 1017.4 968.1
14 22.05 З 2
{6}
н/о н/о +20.0 +7.1 43 +22 +22 комфорт 1016.9 967.8
15 22.05 СЗ 1
{6}
н/о н/о +19.5 +6.1 42 +22 +22 комфорт 1017.1 967.9
16 22.05 С 6
{9}
н/о н/о +18.5 +5.4 42 +18 +18 1017.3 967.9
17 22.05 С 4
{8}
н/о н/о +18.6 +5.6 42 +19 +19 1017.3 967.9
18 22.05 С 4
{9}
н/о н/о +17.7 +3.8 40 +17 +17 1017.7 968.1 +20.0
19 22.05 В 2
{6}
н/о н/о +15.2 +4.1 47 +15 +15 1018.5 968.4
20 22.05 СВ 2
{6}
н/о н/о +14.4 +6.7 60 +14 +14 1019.3 969.1
21 22.05 В 1
{6}
н/о н/о +11.6 +8.2 80 +11 +11 1020.1 969.3
22 22.05 СВ 1
{2}
н/о н/о +10.4 +8.0 85 +10 +10 1020.4 969.4
23 22.05 СВ 1
{2}
н/о н/о +9.4 +7.3 87 +9 +9 1020.5 969.3
00 23.05 В 1
{6}
н/о н/о +7.1 +6.6 97 +6 +6 1021.2 969.5
01 23.05 В 1
{1}
н/о н/о +6.9 +6.4 97 +7 +7 1021.0 969.3
02 23.05 штиль 0
{2}
н/о н/о +6.4 +5.7 95 +5 +5 1021.0 969.2
03 23.05 ЮЗ 1
{2}
н/о н/о +5.9 +5.9 100 +6 +6 1021.1 969.2
04 23.05 штиль 0
{1}
н/о н/о +6.3 +6.3 100 +5 +5 1020.9 969.1
05 23.05 штиль 0
{1}
н/о н/о +7.2 +7.2 100 +6 +6 1020.8 969.2
06 23.05 СВ 2
{4}
н/о н/о +10.4 +8.7 89 +9 +9 1020.2 969.2 +4.8
07 23.05 В 4
{6}
н/о н/о +13.0 +9.5 79 +11 +11 1019.4 968.9
08 23.05 В 5
{7}
н/о н/о +15.0 +8.7 66 +14 +14 1018.8 968.7
09 23.05 В 5
{8}
н/о н/о +16.5 +9.4 63 +16 +16 1018.2 968.4

 

Местоположение метеостанции Гренхен (Швейцария): широта 47.18 долгота 7.42 высота над уровнем моря 430 м.

В архиве по умолчанию представлена погода в Гренхене за последнюю неделю. Архивные данные за месяц целиком и за предыдущие месяцы, начиная с января 2011 года, Вы можете получить, выбрав интересующий диапазон дат из раскрывающегося списка и нажав кнопку "Ввод!".


*Определитесь, кто Вы:
робот инопланетянин человек

Внимание! Время в таблицах - всемирное. Для получения местного времени необходимо прибавить поправку, которая равна 1 ч.

Смотрите также архив погоды в соседних городах и на ближайших метеорологических станциях:

Погода в Оберёш-Коппигене (Швейцария) (16 км)
Погода в Делемоне (Швейцария) (22 км)
Погода в Веве (Швейцария) (22 км)
Погода в Мюлеберге (Швейцария) (25 км)
Погода на Шасрале (Швейцария) (27 км)
Погода в Берне (Швейцария) (28 км)
Погода в Винау (Швейцария) (28 км)
Погода в Кресье (Швейцария) (30 км)
Погода в Лангенбруке (Швейцария) (32 км)
Погода в Лангнау-им-Эмментале (Швейцария) (40 км)

Пояснения к столбцам:

Ветер - указаны скорость ветра в м/с - средняя за 10 мин, порывы в срок и между сроками (в фигурных скобках) и направление, откуда дует ветер: С - северный, СВ - северо-восточный, В - восточный, ЮВ - юго-восточный, Ю - южный, ЮЗ - юго-западный, З - западный, СЗ - северо-западный.
Видимость - горизонтальная дальность видимости в метрах или километрах. При видимости от 1 до 10 км при отсутствии осадков обычно наблюдается дымка, при ухудшении видимости до 1 км и менее - туман. В сухую погоду видимость может ухудшаться дымом, пылью или мглою.
Явления - указаны атмосферные явления, наблюдавшиеся в срок или в последний час перед сроком; фигурными скобками обозначены явления, наблюдавшиеся между сроками (за 1-3 часа до срока); квадратными скобками обозначены град или гололедные отложения с указанием их диаметра в мм.
Облачность - указаны через наклонную черту общая и нижняя облачность в баллах и высота нижней границы облаков в метрах; квадратными скобками обозначены формы облаков: Ci - перистые, Cs - перисто-слоистые, Cc - перисто-кучевые, Ac - высококучевые, As - высокослоистые, Sc - слоисто-кучевые, Ns - слоисто-дождевые, Cu - кучевые, Cb - кучево-дождевые. Подробнее классификацию облаков см. в Атласе облаков (PDF).
T - Температура воздуха - температура, измеренная на высоте 2 м над землей.
Td - Температура точки росы - температура, при понижении до которой содержащийся в воздухе водяной пар достигнет насыщения.
f - Относительная влажность воздуха - влажноcть воздуха, измеренная на высоте 2 м над землей.
Te - Эффективная температура - температура, которую ощущает одетый по сезону человек в тени. Характеристика душности погоды. При расчете учитывается влияние влажности воздуха и скорости ветра на теплоощущения человека.
Tes - Эффективная температура на солнце - температура, которую ощущает человек, с поправкой на солнечный нагрев. Характеристика знойности погоды. Зависит от высоты солнца над горизонтом, облачности и скорости ветра. Ночью, в пасмурную погоду, а также при ветре 12 м/с и более поправка равна нулю.
P - Атмосферное давление - приведенное к уровню моря атмосферное давление.
Po - Атмосферное давление - измеренное на уровне метеостанции атмосферное давление.
Tmin - Минимальная температура - минимум температуры воздуха на высоте 2 м над землей.
Tmax - Максимальная температура - максимум температуры воздуха на высоте 2 м над землей.
R - Количество осадков - Количество выпавших осадков за период времени, мм. При наведении курсора мыши на число - период времени, за который выпало указанное количество осадков.
R24 - Количество осадков - Количество выпавших осадков за 24 часа, мм.
S - Снежный покров - Высота снежного покрова, см. При наведении курсора мыши на число - состояние снежного покрова и степень покрытия местности в баллах.